Location: Akdamlar
(36.8729°N, 30.5187°E)
Time: 20:55:56
(UTC+00:00)

GP-B - Pass Details

Date: 18 September 2020
Orbit: 631 x 635 km, 89.8° (Epoch: 24 October)

Event Time Altitude Azimuth Distance (km) Brightness Sun altitude
Rises 16:43:22 0° 356° (N) 2,936 6.7 -9.4°
Reaches altitude 10° 16:45:38 10° 352° (N) 2,023 5.9 -9.8°
Maximum altitude 16:49:57 54° 276° (W) 774 4.0 -10.7°
Drops below altitude 10° 16:54:15 10° 199° (SSW) 2,006 5.8 -11.5°
Sets 16:56:29 0° 195° (SSW) 2,909 6.6 -11.9°
